User: anonymous   Login
Location: Caltech
(34.1382°N, 118.1253°W)
Time: 14:32:05
(UTC-07:00)
Language:

CZ-4B DEB - Orbit

View from above orbital plane
View from above orbital plane
View from above satellite
View from above satellite

Ground track
Ground track

The orbit data is extracted from the following two-line orbital elements,

1 27433U 02024D   14303.97020856  .00000463  00000-0  27867-3 0  9665
2 27433 098.8438 267.6140 0013641 243.1999 162.9123 14.11664900641679
Epoch (UTC): 30 October 2014 23:17:06
Eccentricity: 0.0013641
inclination: 98.8438°
perigee height: 844 km
apogee height: 863 km
right ascension of ascending node: 267.6140°
argument of perigee: 243.1999°
revolutions per day: 14.11664900
mean anomaly at epoch: 162.9123°
orbit number at epoch: 64167

The dashed part of the orbit path shows where the satellite is in the earth's shadow,  

DLR